Time,TemperatureF,DewpointF,PressureIn,WindDirection,WindDirectionDegrees,WindSpeedMPH,WindSpeedGustMPH,Humidity,HourlyPrecipIn,Conditions,Clouds,dailyrainin,SoftwareType,DateUTC
2013-10-13 00:01:00,40.1,29.0,30.09,NNW,329,0.0,0.0,64,0.00,,,0.00,WUHU216WMR968SP,2013-10-13 07:01:00,
2013-10-13 00:06:00,39.9,29.2,30.09,NNW,329,0.0,0.0,65,0.00,,,0.00,WUHU216WMR968SP,2013-10-13 07:06:00,
2013-10-13 00:11:00,39.9,29.2,30.09,NNW,329,0.0,0.0,65,0.00,,,0.00,WUHU216WMR968SP,2013-10-13 07:11:00,
2013-10-13 00:16:00,39.7,29.0,30.09,NNW,329,0.0,0.0,65,0.00,,,0.00,WUHU216WMR968SP,2013-10-13 07:16:00,
2013-10-13 00:21:00,39.6,28.9,30.09,NNW,329,0.0,0.0,65,0.00,,,0.00,WUHU216WMR968SP,2013-10-13 07:21:00,
2013-10-13 00:26:00,39.4,29.1,30.09,NNW,329,0.0,0.0,66,0.00,,,0.00,WUHU216WMR968SP,2013-10-13 07:26:00,
2013-10-13 00:31:00,39.4,29.1,30.09,NNW,329,0.0,0.0,66,0.00,,,0.00,WUHU216WMR968SP,2013-10-13 07:31:00,
2013-10-13 00:36:00,39.2,28.9,30.09,NNW,329,0.0,0.0,66,0.00,,,0.00,WUHU216WMR968SP,2013-10-13 07:36:00,
2013-10-13 00:41:00,39.2,28.9,30.09,NNW,329,0.0,0.0,66,0.00,,,0.00,WUHU216WMR968SP,2013-10-13 07:41:00,
2013-10-13 00:46:00,39.0,29.0,30.09,NNW,329,0.0,0.0,67,0.00,,,0.00,WUHU216WMR968SP,2013-10-13 07:46:00,
2013-10-13 00:51:00,38.8,28.9,30.09,NNW,329,0.0,0.0,67,0.00,,,0.00,WUHU216WMR968SP,2013-10-13 07:51:00,
2013-10-13 00:56:00,38.7,28.8,30.09,NNW,329,0.0,0.0,67,0.00,,,0.00,WUHU216WMR968SP,2013-10-13 07:56:00,
2013-10-13 01:01:00,38.7,29.1,30.09,NNW,329,0.0,0.0,68,0.00,,,0.00,WUHU216WMR968SP,2013-10-13 08:01:00,
2013-10-13 01:06:00,38.7,29.1,30.09,NNW,329,0.0,0.0,68,0.00,,,0.00,WUHU216WMR968SP,2013-10-13 08:06:00,
2013-10-13 01:11:00,38.5,28.9,30.09,NNW,329,0.0,0.0,68,0.00,,,0.00,WUHU216WMR968SP,2013-10-13 08:11:00,
2013-10-13 01:16:00,38.5,28.9,30.09,NNW,329,0.0,0.0,68,0.00,,,0.00,WUHU216WMR968SP,2013-10-13 08:16:00,
2013-10-13 01:21:00,38.5,28.9,30.09,NNW,329,0.0,0.0,68,0.00,,,0.00,WUHU216WMR968SP,2013-10-13 08:21:00,
2013-10-13 01:26:00,38.5,28.9,30.09,NNW,329,0.0,0.0,68,0.00,,,0.00,WUHU216WMR968SP,2013-10-13 08:26:00,
2013-10-13 01:31:00,38.3,28.7,30.09,NNW,329,0.0,0.0,68,0.00,,,0.00,WUHU216WMR968SP,2013-10-13 08:31:00,
2013-10-13 01:36:00,38.3,29.1,30.09,NNW,329,0.0,0.0,69,0.00,,,0.00,WUHU216WMR968SP,2013-10-13 08:36:00,
2013-10-13 01:41:00,38.1,28.9,30.09,NNW,329,0.0,0.0,69,0.00,,,0.00,WUHU216WMR968SP,2013-10-13 08:41:00,
2013-10-13 01:46:00,37.9,28.7,30.09,NNW,329,0.0,0.0,69,0.00,,,0.00,WUHU216WMR968SP,2013-10-13 08:46:00,
2013-10-13 01:51:00,37.9,28.7,30.09,NNW,329,0.0,0.0,69,0.00,,,0.00,WUHU216WMR968SP,2013-10-13 08:51:00,
2013-10-13 01:56:00,37.8,28.6,30.09,NNW,329,0.0,0.0,69,0.00,,,0.00,WUHU216WMR968SP,2013-10-13 08:56:00,
2013-10-13 02:01:00,37.6,28.4,30.09,NNW,329,0.0,0.0,69,0.00,,,0.00,WUHU216WMR968SP,2013-10-13 09:01:00,
2013-10-13 02:06:00,37.6,28.8,30.09,NNW,329,0.0,0.0,70,0.00,,,0.00,WUHU216WMR968SP,2013-10-13 09:06:00,
2013-10-13 02:11:00,37.6,28.8,30.09,NNW,329,0.0,0.0,70,0.00,,,0.00,WUHU216WMR968SP,2013-10-13 09:11:00,
2013-10-13 02:16:00,37.4,28.6,30.09,NNW,329,0.0,0.0,70,0.00,,,0.00,WUHU216WMR968SP,2013-10-13 09:16:00,
2013-10-13 02:21:00,37.4,28.6,30.12,NNW,329,0.0,0.0,70,0.00,,,0.00,WUHU216WMR968SP,2013-10-13 09:21:00,
2013-10-13 02:26:00,37.2,28.4,30.12,NNW,329,0.0,0.0,70,0.00,,,0.00,WUHU216WMR968SP,2013-10-13 09:26:00,
2013-10-13 02:31:00,37.0,28.2,30.12,NNW,329,0.0,0.0,70,0.00,,,0.00,WUHU216WMR968SP,2013-10-13 09:31:00,
2013-10-13 02:36:00,37.0,28.2,30.12,NNW,329,0.0,0.0,70,0.00,,,0.00,WUHU216WMR968SP,2013-10-13 09:36:00,
2013-10-13 02:41:00,37.0,28.5,30.12,NNW,329,0.0,0.0,71,0.00,,,0.00,WUHU216WMR968SP,2013-10-13 09:41:00,
2013-10-13 02:46:00,36.9,28.1,30.12,NNW,329,0.0,0.0,70,0.00,,,0.00,WUHU216WMR968SP,2013-10-13 09:46:00,
2013-10-13 02:51:00,36.7,28.2,30.09,NNW,329,0.0,0.0,71,0.00,,,0.00,WUHU216WMR968SP,2013-10-13 09:51:00,
2013-10-13 03:35:00,36.3,28.2,30.12,NNW,329,0.0,0.0,72,0.00,,,0.00,WUHU216WMR968SP,2013-10-13 10:35:00,
2013-10-13 03:40:00,36.3,28.2,30.12,NNW,329,0.0,0.0,72,0.00,,,0.00,WUHU216WMR968SP,2013-10-13 10:40:00,
2013-10-13 03:45:00,36.3,28.2,30.12,NNW,329,0.0,0.0,72,0.00,,,0.00,WUHU216WMR968SP,2013-10-13 10:45:00,
2013-10-13 03:50:00,36.3,28.2,30.12,NNW,329,0.0,0.0,72,0.00,,,0.00,WUHU216WMR968SP,2013-10-13 10:50:00,
2013-10-13 03:55:00,36.1,28.0,30.12,NNW,329,0.0,0.0,72,0.00,,,0.00,WUHU216WMR968SP,2013-10-13 10:55:00,
2013-10-13 04:00:00,36.1,28.0,30.12,NNW,329,0.0,0.0,72,0.00,,,0.00,WUHU216WMR968SP,2013-10-13 11:00:00,
2013-10-13 04:05:00,36.0,27.9,30.12,NNW,329,0.0,0.0,72,0.00,,,0.00,WUHU216WMR968SP,2013-10-13 11:05:00,
2013-10-13 04:10:00,36.0,27.9,30.12,NNW,329,0.0,0.0,72,0.00,,,0.00,WUHU216WMR968SP,2013-10-13 11:10:00,
2013-10-13 04:15:00,36.0,27.9,30.12,NNW,329,0.0,0.0,72,0.00,,,0.00,WUHU216WMR968SP,2013-10-13 11:15:00,
2013-10-13 04:20:00,35.8,28.0,30.12,NNW,329,0.0,0.0,73,0.00,,,0.00,WUHU216WMR968SP,2013-10-13 11:20:00,
2013-10-13 04:25:00,35.8,28.0,30.12,NNW,329,0.0,0.0,73,0.00,,,0.00,WUHU216WMR968SP,2013-10-13 11:25:00,
2013-10-13 04:30:00,35.8,28.0,30.12,NNW,329,0.0,0.0,73,0.00,,,0.00,WUHU216WMR968SP,2013-10-13 11:30:00,
2013-10-13 04:35:00,35.6,27.9,30.12,NNW,329,0.0,0.0,73,0.00,,,0.00,WUHU216WMR968SP,2013-10-13 11:35:00,
2013-10-13 04:40:00,35.6,27.9,30.12,NNW,329,0.0,0.0,73,0.00,,,0.00,WUHU216WMR968SP,2013-10-13 11:40:00,
2013-10-13 04:45:00,35.6,27.9,30.12,NNW,329,0.0,0.0,73,0.00,,,0.00,WUHU216WMR968SP,2013-10-13 11:45:00,
2013-10-13 04:50:00,35.4,27.7,30.12,NNW,329,0.0,0.0,73,0.00,,,0.00,WUHU216WMR968SP,2013-10-13 11:50:00,
2013-10-13 04:55:00,35.4,27.7,30.12,NNW,329,0.0,0.0,73,0.00,,,0.00,WUHU216WMR968SP,2013-10-13 11:55:00,
2013-10-13 05:00:00,35.4,27.7,30.12,NNW,329,0.0,0.0,73,0.00,,,0.00,WUHU216WMR968SP,2013-10-13 12:00:00,
2013-10-13 05:05:00,35.4,27.7,30.12,NNW,329,0.0,0.0,73,0.00,,,0.00,WUHU216WMR968SP,2013-10-13 12:05:00,
2013-10-13 05:10:00,35.6,27.9,30.15,NNW,329,0.0,0.0,73,0.00,,,0.00,WUHU216WMR968SP,2013-10-13 12:10:00,
2013-10-13 05:15:00,35.8,28.0,30.15,NNW,329,0.0,0.0,73,0.00,,,0.00,WUHU216WMR968SP,2013-10-13 12:15:00,
2013-10-13 05:20:00,36.0,28.6,30.15,NNW,329,0.0,0.0,74,0.00,,,0.00,WUHU216WMR968SP,2013-10-13 12:20:00,
2013-10-13 05:25:00,36.0,28.6,30.15,NNW,329,0.0,0.0,74,0.00,,,0.00,WUHU216WMR968SP,2013-10-13 12:25:00,
2013-10-13 05:30:00,36.1,28.7,30.15,NNW,329,0.0,0.0,74,0.00,,,0.00,WUHU216WMR968SP,2013-10-13 12:30:00,
2013-10-13 05:35:00,36.1,28.7,30.15,NNW,329,0.0,0.0,74,0.00,,,0.00,WUHU216WMR968SP,2013-10-13 12:35:00,
2013-10-13 05:40:00,36.0,28.6,30.15,NNW,330,0.0,0.0,74,0.00,,,0.00,WUHU216WMR968SP,2013-10-13 12:40:00,
2013-10-13 05:45:00,35.8,28.0,30.15,NNW,329,0.0,0.0,73,0.00,,,0.00,WUHU216WMR968SP,2013-10-13 12:45:00,
2013-10-13 05:50:00,35.6,27.9,30.15,NNW,329,0.0,0.0,73,0.00,,,0.00,WUHU216WMR968SP,2013-10-13 12:50:00,
2013-10-13 05:55:00,35.6,27.9,30.15,NNW,329,0.0,0.0,73,0.00,,,0.00,WUHU216WMR968SP,2013-10-13 12:55:00,
2013-10-13 06:00:00,35.4,28.0,30.15,NNW,329,0.0,0.0,74,0.00,,,0.00,WUHU216WMR968SP,2013-10-13 13:00:00,
2013-10-13 06:05:00,35.4,28.0,30.15,NNW,329,0.0,0.0,74,0.00,,,0.00,WUHU216WMR968SP,2013-10-13 13:05:00,
2013-10-13 06:10:00,35.2,27.8,30.15,NNW,329,0.0,0.0,74,0.00,,,0.00,WUHU216WMR968SP,2013-10-13 13:10:00,
2013-10-13 06:15:00,35.1,27.7,30.15,NNW,329,0.0,0.0,74,0.00,,,0.00,WUHU216WMR968SP,2013-10-13 13:15:00,
2013-10-13 06:20:00,35.1,27.7,30.15,NNW,329,0.0,0.0,74,0.00,,,0.00,WUHU216WMR968SP,2013-10-13 13:20:00,
2013-10-13 06:25:00,34.9,27.5,30.15,NNW,329,0.0,0.0,74,0.00,,,0.00,WUHU216WMR968SP,2013-10-13 13:25:00,
2013-10-13 06:30:00,34.9,27.5,30.15,NNW,329,0.0,0.0,74,0.00,,,0.00,WUHU216WMR968SP,2013-10-13 13:30:00,
2013-10-13 06:35:00,34.9,27.5,30.15,NNW,329,0.0,0.0,74,0.00,,,0.00,WUHU216WMR968SP,2013-10-13 13:35:00,
2013-10-13 06:40:00,34.7,27.3,30.15,NNW,329,0.0,0.0,74,0.00,,,0.00,WUHU216WMR968SP,2013-10-13 13:40:00,
2013-10-13 06:45:00,34.7,27.3,30.15,NNW,329,0.0,0.0,74,0.00,,,0.00,WUHU216WMR968SP,2013-10-13 13:45:00,
2013-10-13 06:50:00,34.7,27.3,30.15,NNW,329,0.0,0.0,74,0.00,,,0.00,WUHU216WMR968SP,2013-10-13 13:50:00,
2013-10-13 06:55:00,34.7,27.3,30.15,NNW,329,0.0,0.0,74,0.00,,,0.00,WUHU216WMR968SP,2013-10-13 13:55:00,
2013-10-13 07:00:00,34.7,27.3,30.15,NNW,329,0.0,0.0,74,0.00,,,0.00,WUHU216WMR968SP,2013-10-13 14:00:00,
2013-10-13 07:05:00,34.7,27.3,30.15,NNW,329,0.0,0.0,74,0.00,,,0.00,WUHU216WMR968SP,2013-10-13 14:05:00,
2013-10-13 07:10:00,34.5,27.1,30.15,NNW,329,0.0,0.0,74,0.00,,,0.00,WUHU216WMR968SP,2013-10-13 14:10:00,
2013-10-13 07:15:00,34.5,27.1,30.15,NNW,329,0.0,0.0,74,0.00,,,0.00,WUHU216WMR968SP,2013-10-13 14:15:00,
2013-10-13 07:20:00,34.3,26.9,30.15,NNW,329,0.0,0.0,74,0.00,,,0.00,WUHU216WMR968SP,2013-10-13 14:20:00,
2013-10-13 07:25:00,34.2,26.8,30.15,NNW,329,0.0,0.0,74,0.00,,,0.00,WUHU216WMR968SP,2013-10-13 14:25:00,
2013-10-13 07:30:00,34.0,26.6,30.15,NNW,329,0.0,0.0,74,0.00,,,0.00,WUHU216WMR968SP,2013-10-13 14:30:00,
2013-10-13 07:35:00,34.2,26.8,30.15,NNW,329,0.0,0.0,74,0.00,,,0.00,WUHU216WMR968SP,2013-10-13 14:35:00,
2013-10-13 07:40:00,34.2,27.1,30.15,NNW,329,0.0,0.0,75,0.00,,,0.00,WUHU216WMR968SP,2013-10-13 14:40:00,
2013-10-13 07:45:00,34.2,26.8,30.15,NNW,329,0.0,0.0,74,0.00,,,0.00,WUHU216WMR968SP,2013-10-13 14:45:00,
2013-10-13 07:50:00,34.2,26.8,30.15,NNW,329,0.0,0.0,74,0.00,,,0.00,WUHU216WMR968SP,2013-10-13 14:50:00,
2013-10-13 07:55:00,34.2,27.1,30.18,NNW,329,0.0,0.0,75,0.00,,,0.00,WUHU216WMR968SP,2013-10-13 14:55:00,
2013-10-13 08:00:00,34.3,27.2,30.18,NNW,329,0.0,0.0,75,0.00,,,0.00,WUHU216WMR968SP,2013-10-13 15:00:00,
2013-10-13 08:05:00,34.3,27.2,30.18,NNW,329,0.0,0.0,75,0.00,,,0.00,WUHU216WMR968SP,2013-10-13 15:05:00,
2013-10-13 08:10:00,34.5,27.4,30.18,NNW,329,0.0,0.0,75,0.00,,,0.00,WUHU216WMR968SP,2013-10-13 15:10:00,
2013-10-13 08:15:00,34.9,27.8,30.18,NNW,329,0.0,0.0,75,0.00,,,0.00,WUHU216WMR968SP,2013-10-13 15:15:00,
2013-10-13 08:20:00,34.9,27.8,30.15,NNW,329,0.0,0.0,75,0.00,,,0.00,WUHU216WMR968SP,2013-10-13 15:20:00,
2013-10-13 08:25:00,35.1,28.0,30.15,NNW,329,0.0,0.0,75,0.00,,,0.00,WUHU216WMR968SP,2013-10-13 15:25:00,
2013-10-13 08:30:00,35.4,28.3,30.15,NNW,329,0.0,0.0,75,0.00,,,0.00,WUHU216WMR968SP,2013-10-13 15:30:00,
2013-10-13 08:35:00,35.8,28.7,30.15,NNW,329,0.0,0.0,75,0.00,,,0.00,WUHU216WMR968SP,2013-10-13 15:35:00,
2013-10-13 08:40:00,36.1,29.0,30.18,NNW,329,0.0,0.0,75,0.00,,,0.00,WUHU216WMR968SP,2013-10-13 15:40:00,
2013-10-13 08:45:00,36.5,29.7,30.18,NNW,329,0.0,0.0,76,0.00,,,0.00,WUHU216WMR968SP,2013-10-13 15:45:00,
2013-10-13 08:50:00,37.0,30.2,30.18,NNW,329,0.0,0.0,76,0.00,,,0.00,WUHU216WMR968SP,2013-10-13 15:50:00,
2013-10-13 08:55:00,37.2,30.4,30.18,NNW,329,0.0,0.0,76,0.00,,,0.00,WUHU216WMR968SP,2013-10-13 15:55:00,
2013-10-13 09:00:00,37.6,30.8,30.18,NNW,329,0.0,0.0,76,0.00,,,0.00,WUHU216WMR968SP,2013-10-13 16:00:00,
2013-10-13 09:05:00,38.1,31.2,30.18,NNW,330,0.0,0.0,76,0.00,,,0.00,WUHU216WMR968SP,2013-10-13 16:05:00,
2013-10-13 09:10:00,38.7,32.0,30.18,NNW,329,0.0,0.0,76,0.00,,,0.00,WUHU216WMR968SP,2013-10-13 16:10:00,
2013-10-13 09:15:00,39.2,32.0,30.18,NNW,330,0.0,0.0,76,0.00,,,0.00,WUHU216WMR968SP,2013-10-13 16:15:00,
2013-10-13 09:20:00,39.7,32.0,30.18,NNW,329,0.0,0.0,76,0.00,,,0.00,WUHU216WMR968SP,2013-10-13 16:20:00,
2013-10-13 09:25:00,40.5,33.8,30.18,NNW,329,0.0,0.0,76,0.00,,,0.00,WUHU216WMR968SP,2013-10-13 16:25:00,
2013-10-13 09:30:00,41.2,33.8,30.18,NNW,329,0.0,0.0,76,0.00,,,0.00,WUHU216WMR968SP,2013-10-13 16:30:00,
2013-10-13 09:35:00,42.1,35.6,30.18,NNW,329,0.0,0.0,77,0.00,,,0.00,WUHU216WMR968SP,2013-10-13 16:35:00,
2013-10-13 09:40:00,43.0,35.6,30.15,NNW,329,2.2,2.7,76,0.00,,,0.00,WUHU216WMR968SP,2013-10-13 16:40:00,
2013-10-13 09:45:00,43.0,35.6,30.15,West,266,2.2,3.6,76,0.00,,,0.00,WUHU216WMR968SP,2013-10-13 16:45:00,
2013-10-13 09:50:00,43.0,35.6,30.18,NW,322,2.7,3.6,76,0.00,,,0.00,WUHU216WMR968SP,2013-10-13 16:50:00,
2013-10-13 09:55:00,43.0,35.6,30.18,NW,322,0.0,3.1,76,0.00,,,0.00,WUHU216WMR968SP,2013-10-13 16:55:00,
2013-10-13 10:00:00,43.3,35.6,30.18,NW,322,0.0,2.7,76,0.00,,,0.00,WUHU216WMR968SP,2013-10-13 17:00:00,
2013-10-13 10:05:00,43.5,35.6,30.18,NW,316,2.7,4.0,76,0.00,,,0.00,WUHU216WMR968SP,2013-10-13 17:05:00,
2013-10-13 10:10:00,43.5,35.6,30.18,WNW,300,0.0,4.0,76,0.00,,,0.00,WUHU216WMR968SP,2013-10-13 17:10:00,
2013-10-13 10:15:00,43.7,37.4,30.18,WNW,301,0.0,3.6,76,0.00,,,0.00,WUHU216WMR968SP,2013-10-13 17:15:00,
2013-10-13 10:20:00,43.9,37.4,30.18,WNW,300,0.0,3.6,76,0.00,,,0.00,WUHU216WMR968SP,2013-10-13 17:20:00,
2013-10-13 10:25:00,44.1,37.4,30.18,WNW,300,0.0,3.6,76,0.00,,,0.00,WUHU216WMR968SP,2013-10-13 17:25:00,
2013-10-13 10:30:00,44.1,37.4,30.18,WNW,300,0.0,2.7,75,0.00,,,0.00,WUHU216WMR968SP,2013-10-13 17:30:00,
2013-10-13 10:35:00,44.1,37.4,30.18,WNW,300,0.0,2.7,74,0.00,,,0.00,WUHU216WMR968SP,2013-10-13 17:35:00,
2013-10-13 10:40:00,44.2,35.6,30.18,WNW,300,0.0,2.2,73,0.00,,,0.00,WUHU216WMR968SP,2013-10-13 17:40:00,
2013-10-13 10:45:00,44.2,35.6,30.18,WNW,300,0.0,2.2,71,0.00,,,0.00,WUHU216WMR968SP,2013-10-13 17:45:00,
2013-10-13 10:50:00,44.2,35.6,30.18,WNW,300,0.0,2.7,69,0.00,,,0.00,WUHU216WMR968SP,2013-10-13 17:50:00,
2013-10-13 10:55:00,44.6,33.8,30.18,SW,229,2.2,3.6,66,0.00,,,0.00,WUHU216WMR968SP,2013-10-13 17:55:00,
2013-10-13 11:00:00,44.6,33.8,30.18,SW,229,0.0,3.6,65,0.00,,,0.00,WUHU216WMR968SP,2013-10-13 18:00:00,
2013-10-13 11:06:00,44.6,32.0,30.18,SW,230,0.0,4.0,61,0.00,,,0.00,WUHU216WMR968SP,2013-10-13 18:06:00,
2013-10-13 11:11:00,44.4,30.2,30.18,SW,230,0.0,4.0,57,0.00,,,0.00,WUHU216WMR968SP,2013-10-13 18:11:00,
2013-10-13 11:16:00,44.6,29.9,30.18,SW,230,0.0,0.0,56,0.00,,,0.00,WUHU216WMR968SP,2013-10-13 18:16:00,
2013-10-13 11:21:00,44.6,29.5,30.18,SW,230,2.2,3.1,55,0.00,,,0.00,WUHU216WMR968SP,2013-10-13 18:21:00,
2013-10-13 11:26:00,44.8,29.6,30.18,SW,230,0.0,3.1,55,0.00,,,0.00,WUHU216WMR968SP,2013-10-13 18:26:00,
2013-10-13 11:31:00,45.0,30.3,30.18,West,273,0.0,3.1,56,0.00,,,0.00,WUHU216WMR968SP,2013-10-13 18:31:00,
2013-10-13 11:36:00,45.1,29.9,30.18,NW,320,2.7,4.9,55,0.00,,,0.00,WUHU216WMR968SP,2013-10-13 18:36:00,
2013-10-13 11:41:00,45.3,29.2,30.18,West,261,3.1,4.9,53,0.00,,,0.00,WUHU216WMR968SP,2013-10-13 18:41:00,
2013-10-13 11:46:00,45.5,28.9,30.18,WNW,282,3.1,4.9,52,0.00,,,0.00,WUHU216WMR968SP,2013-10-13 18:46:00,
2013-10-13 11:51:00,45.7,28.1,30.18,NW,315,2.7,5.4,50,0.00,,,0.00,WUHU216WMR968SP,2013-10-13 18:51:00,
2013-10-13 11:56:00,45.3,26.7,30.18,NW,304,0.0,5.4,48,0.00,,,0.00,WUHU216WMR968SP,2013-10-13 18:56:00,
2013-10-13 12:01:00,45.5,26.9,30.18,WSW,254,3.1,5.4,48,0.00,,,0.00,WUHU216WMR968SP,2013-10-13 19:01:00,
2013-10-13 12:06:00,45.7,27.1,30.18,WSW,254,0.0,4.0,48,0.00,,,0.00,WUHU216WMR968SP,2013-10-13 19:06:00,
2013-10-13 12:11:00,46.0,27.3,30.18,SW,223,0.0,3.6,48,0.00,,,0.00,WUHU216WMR968SP,2013-10-13 19:11:00,
2013-10-13 12:16:00,46.0,27.3,30.18,SW,228,2.2,4.0,48,0.00,,,0.00,WUHU216WMR968SP,2013-10-13 19:16:00,
2013-10-13 12:21:00,46.0,27.3,30.18,NW,322,0.0,5.4,48,0.00,,,0.00,WUHU216WMR968SP,2013-10-13 19:21:00,
2013-10-13 12:26:00,46.6,27.9,30.18,NW,314,0.0,5.4,48,0.00,,,0.00,WUHU216WMR968SP,2013-10-13 19:26:00,
2013-10-13 12:31:00,46.6,27.9,30.18,NW,307,0.0,4.0,48,0.00,,,0.00,WUHU216WMR968SP,2013-10-13 19:31:00,
2013-10-13 12:36:00,46.6,26.3,30.18,NW,318,4.0,5.4,45,0.00,,,0.00,WUHU216WMR968SP,2013-10-13 19:36:00,
2013-10-13 12:41:00,46.6,26.3,30.18,NW,320,0.0,5.4,45,0.00,,,0.00,WUHU216WMR968SP,2013-10-13 19:41:00,
2013-10-13 12:46:00,46.6,25.7,30.18,West,279,2.2,5.4,44,0.00,,,0.00,WUHU216WMR968SP,2013-10-13 19:46:00,
2013-10-13 12:51:00,46.8,25.9,30.18,NNW,341,3.1,5.4,44,0.00,,,0.00,WUHU216WMR968SP,2013-10-13 19:51:00,
2013-10-13 12:56:00,46.8,25.3,30.18,WSW,254,3.1,6.3,43,0.00,,,0.00,WUHU216WMR968SP,2013-10-13 19:56:00,
2013-10-13 13:01:00,46.4,25.0,30.18,NNW,333,2.2,6.3,43,0.00,,,0.00,WUHU216WMR968SP,2013-10-13 20:01:00,
2013-10-13 13:06:00,46.6,25.7,30.18,WNW,295,0.0,5.8,44,0.00,,,0.00,WUHU216WMR968SP,2013-10-13 20:06:00,
2013-10-13 13:11:00,47.1,26.2,30.18,West,278,0.0,4.0,44,0.00,,,0.00,WUHU216WMR968SP,2013-10-13 20:11:00,
2013-10-13 13:16:00,46.9,25.4,30.18,SSW,213,2.7,4.0,43,0.00,,,0.00,WUHU216WMR968SP,2013-10-13 20:16:00,
2013-10-13 13:21:00,46.9,25.4,30.18,West,264,3.1,5.4,43,0.00,,,0.00,WUHU216WMR968SP,2013-10-13 20:21:00,
2013-10-13 13:26:00,46.9,25.4,30.18,SW,219,0.0,5.4,43,0.00,,,0.00,WUHU216WMR968SP,2013-10-13 20:26:00,
2013-10-13 13:31:00,47.1,26.2,30.18,SW,219,2.2,4.0,44,0.00,,,0.00,WUHU216WMR968SP,2013-10-13 20:31:00,
2013-10-13 13:36:00,47.5,26.5,30.15,SW,215,2.7,4.9,44,0.00,,,0.00,WUHU216WMR968SP,2013-10-13 20:36:00,
2013-10-13 13:41:00,47.7,26.1,30.15,SW,215,0.0,5.4,43,0.00,,,0.00,WUHU216WMR968SP,2013-10-13 20:41:00,
2013-10-13 13:46:00,47.8,25.6,30.15,SW,230,0.0,5.4,42,0.00,,,0.00,WUHU216WMR968SP,2013-10-13 20:46:00,
2013-10-13 13:51:00,48.2,27.2,30.15,WSW,246,3.6,4.9,44,0.00,,,0.00,WUHU216WMR968SP,2013-10-13 20:51:00,
2013-10-13 13:56:00,48.7,27.0,30.15,SSW,207,2.2,4.9,43,0.00,,,0.00,WUHU216WMR968SP,2013-10-13 20:56:00,
2013-10-13 14:01:00,48.7,24.6,30.15,SW,218,3.1,8.1,39,0.00,,,0.00,WUHU216WMR968SP,2013-10-13 21:01:00,
2013-10-13 14:06:00,49.1,25.6,30.15,West,270,2.2,8.3,40,0.00,,,0.00,WUHU216WMR968SP,2013-10-13 21:06:00,
2013-10-13 14:11:00,48.9,24.2,30.15,WSW,249,2.7,8.3,38,0.00,,,0.00,WUHU216WMR968SP,2013-10-13 21:11:00,
2013-10-13 14:16:00,48.7,23.4,30.15,West,271,3.1,8.3,37,0.00,,,0.00,WUHU216WMR968SP,2013-10-13 21:16:00,
2013-10-13 14:21:00,48.7,24.0,30.15,NW,324,2.7,6.7,38,0.00,,,0.00,WUHU216WMR968SP,2013-10-13 21:21:00,
2013-10-13 14:26:00,48.9,24.2,30.15,NNW,338,3.6,7.6,38,0.00,,,0.00,WUHU216WMR968SP,2013-10-13 21:26:00,
2013-10-13 14:31:00,49.1,24.4,30.15,North,353,0.0,7.6,38,0.00,,,0.00,WUHU216WMR968SP,2013-10-13 21:31:00,
2013-10-13 14:36:00,49.3,23.9,30.15,West,271,0.0,6.3,37,0.00,,,0.00,WUHU216WMR968SP,2013-10-13 21:36:00,
2013-10-13 14:41:00,50.0,25.2,30.15,NW,321,0.0,6.3,38,0.00,,,0.00,WUHU216WMR968SP,2013-10-13 21:41:00,
2013-10-13 14:46:00,50.4,24.9,30.15,NW,314,3.6,5.8,37,0.00,,,0.00,WUHU216WMR968SP,2013-10-13 21:46:00,
2013-10-13 14:51:00,50.2,24.7,30.15,SW,220,0.0,8.3,37,0.00,,,0.00,WUHU216WMR968SP,2013-10-13 21:51:00,
2013-10-13 14:56:00,50.4,24.9,30.15,West,263,0.0,8.3,37,0.00,,,0.00,WUHU216WMR968SP,2013-10-13 21:56:00,
2013-10-13 15:01:00,50.4,24.9,30.15,SSW,204,2.7,4.0,37,0.00,,,0.00,WUHU216WMR968SP,2013-10-13 22:01:00,
2013-10-13 15:06:00,50.5,24.3,30.15,SW,226,0.0,4.0,36,0.00,,,0.00,WUHU216WMR968SP,2013-10-13 22:06:00,
2013-10-13 15:11:00,50.9,24.7,30.15,SSW,196,0.0,4.0,36,0.00,,,0.00,WUHU216WMR968SP,2013-10-13 22:11:00,
2013-10-13 15:16:00,50.7,24.5,30.15,SSW,201,0.0,4.0,36,0.00,,,0.00,WUHU216WMR968SP,2013-10-13 22:16:00,
2013-10-13 15:21:00,50.9,25.3,30.15,SSW,211,0.0,4.0,37,0.00,,,0.00,WUHU216WMR968SP,2013-10-13 22:21:00,
2013-10-13 15:26:00,50.9,24.7,30.15,SW,223,2.7,4.0,36,0.00,,,0.00,WUHU216WMR968SP,2013-10-13 22:26:00,
2013-10-13 15:31:00,50.9,24.7,30.15,SW,223,0.0,3.6,36,0.00,,,0.00,WUHU216WMR968SP,2013-10-13 22:31:00,
2013-10-13 15:36:00,51.3,25.0,30.15,SW,215,2.2,3.6,36,0.00,,,0.00,WUHU216WMR968SP,2013-10-13 22:36:00,
2013-10-13 15:41:00,51.3,25.0,30.15,SW,215,0.0,4.0,36,0.00,,,0.00,WUHU216WMR968SP,2013-10-13 22:41:00,
2013-10-13 15:46:00,51.6,25.3,30.15,SW,220,0.0,4.0,36,0.00,,,0.00,WUHU216WMR968SP,2013-10-13 22:46:00,
2013-10-13 15:51:00,51.6,25.3,30.15,SW,217,2.2,3.6,36,0.00,,,0.00,WUHU216WMR968SP,2013-10-13 22:51:00,
2013-10-13 15:56:00,51.8,25.5,30.15,SSW,203,2.2,3.6,36,0.00,,,0.00,WUHU216WMR968SP,2013-10-13 22:56:00,
2013-10-13 16:01:00,52.2,25.8,30.15,SSW,203,0.0,2.7,36,0.00,,,0.00,WUHU216WMR968SP,2013-10-13 23:01:00,
2013-10-13 16:06:00,52.3,24.5,30.15,SSW,203,2.7,3.1,34,0.00,,,0.00,WUHU216WMR968SP,2013-10-13 23:06:00,
2013-10-13 16:11:00,52.3,25.2,30.15,SW,214,3.1,4.0,35,0.00,,,0.00,WUHU216WMR968SP,2013-10-13 23:11:00,
2013-10-13 16:16:00,52.3,24.5,30.15,SSW,207,2.2,4.0,34,0.00,,,0.00,WUHU216WMR968SP,2013-10-13 23:16:00,
2013-10-13 16:21:00,52.5,25.4,30.15,SSW,196,2.2,3.6,35,0.00,,,0.00,WUHU216WMR968SP,2013-10-13 23:21:00,
2013-10-13 16:26:00,52.7,26.3,30.15,SSW,207,0.0,4.0,36,0.00,,,0.00,WUHU216WMR968SP,2013-10-13 23:26:00,
2013-10-13 16:31:00,52.9,25.0,30.15,SSW,205,0.0,4.0,34,0.00,,,0.00,WUHU216WMR968SP,2013-10-13 23:31:00,
2013-10-13 16:36:00,53.1,25.2,30.15,SSW,204,0.0,3.6,34,0.00,,,0.00,WUHU216WMR968SP,2013-10-13 23:36:00,
2013-10-13 16:41:00,53.1,24.5,30.15,SSW,208,2.7,3.6,33,0.00,,,0.00,WUHU216WMR968SP,2013-10-13 23:41:00,
2013-10-13 16:46:00,53.1,25.2,30.15,SSW,208,2.2,3.6,34,0.00,,,0.00,WUHU216WMR968SP,2013-10-13 23:46:00,
2013-10-13 16:51:00,53.2,25.3,30.15,SSW,209,0.0,4.0,34,0.00,,,0.00,WUHU216WMR968SP,2013-10-13 23:51:00,
2013-10-13 16:56:00,53.4,25.5,30.15,SSW,209,0.0,4.0,34,0.00,,,0.00,WUHU216WMR968SP,2013-10-13 23:56:00,
2013-10-13 17:01:00,53.8,25.1,30.15,SSW,209,0.0,4.0,33,0.00,,,0.00,WUHU216WMR968SP,2013-10-14 00:01:00,
2013-10-13 17:06:00,54.1,24.6,30.15,SSW,209,0.0,4.0,32,0.00,,,0.00,WUHU216WMR968SP,2013-10-14 00:06:00,
2013-10-13 17:11:00,54.1,24.6,30.15,SSW,209,0.0,0.0,32,0.00,,,0.00,WUHU216WMR968SP,2013-10-14 00:11:00,
2013-10-13 17:16:00,54.1,25.4,30.15,SSW,209,0.0,2.2,33,0.00,,,0.00,WUHU216WMR968SP,2013-10-14 00:16:00,
2013-10-13 17:21:00,54.1,24.6,30.15,SSW,209,0.0,2.2,32,0.00,,,0.00,WUHU216WMR968SP,2013-10-14 00:21:00,
2013-10-13 17:26:00,54.1,24.6,30.15,SSW,209,0.0,2.7,32,0.00,,,0.00,WUHU216WMR968SP,2013-10-14 00:26:00,
2013-10-13 17:31:00,54.1,24.6,30.15,SSW,209,0.0,2.7,32,0.00,,,0.00,WUHU216WMR968SP,2013-10-14 00:31:00,
2013-10-13 17:36:00,54.1,25.4,30.15,SSW,209,0.0,0.0,33,0.00,,,0.00,WUHU216WMR968SP,2013-10-14 00:36:00,
2013-10-13 17:41:00,54.0,25.3,30.15,SSW,209,0.0,0.0,33,0.00,,,0.00,WUHU216WMR968SP,2013-10-14 00:41:00,
2013-10-13 17:46:00,53.8,25.8,30.15,SSW,208,0.0,0.0,34,0.00,,,0.00,WUHU216WMR968SP,2013-10-14 00:46:00,
2013-10-13 17:51:00,53.4,26.2,30.15,SSW,209,0.0,0.0,35,0.00,,,0.00,WUHU216WMR968SP,2013-10-14 00:51:00,
2013-10-13 17:56:00,53.2,26.7,30.15,SSW,209,0.0,0.0,36,0.00,,,0.00,WUHU216WMR968SP,2013-10-14 00:56:00,
2013-10-13 18:01:00,52.9,26.4,30.15,SSW,209,0.0,0.0,36,0.00,,,0.00,WUHU216WMR968SP,2013-10-14 01:01:00,
2013-10-13 18:06:00,52.3,25.9,30.15,SSW,209,0.0,0.0,36,0.00,,,0.00,WUHU216WMR968SP,2013-10-14 01:06:00,
2013-10-13 18:11:00,51.8,25.5,30.15,SSW,209,0.0,0.0,36,0.00,,,0.00,WUHU216WMR968SP,2013-10-14 01:11:00,
2013-10-13 18:16:00,51.4,25.8,30.15,SSW,209,0.0,0.0,37,0.00,,,0.00,WUHU216WMR968SP,2013-10-14 01:16:00,
2013-10-13 18:21:00,51.1,26.2,30.15,SSW,209,0.0,0.0,38,0.00,,,0.00,WUHU216WMR968SP,2013-10-14 01:21:00,
2013-10-13 18:26:00,50.5,25.6,30.15,SSW,209,0.0,0.0,38,0.00,,,0.00,WUHU216WMR968SP,2013-10-14 01:26:00,
2013-10-13 18:31:00,50.2,26.0,30.15,SSW,209,0.0,0.0,39,0.00,,,0.00,WUHU216WMR968SP,2013-10-14 01:31:00,
2013-10-13 18:36:00,50.0,25.8,30.18,SSW,209,0.0,0.0,39,0.00,,,0.00,WUHU216WMR968SP,2013-10-14 01:36:00,
2013-10-13 18:41:00,49.6,26.1,30.18,SSW,209,0.0,0.0,40,0.00,,,0.00,WUHU216WMR968SP,2013-10-14 01:41:00,
2013-10-13 18:46:00,49.3,25.8,30.18,SSW,209,0.0,0.0,40,0.00,,,0.00,WUHU216WMR968SP,2013-10-14 01:46:00,
2013-10-13 18:51:00,48.9,25.4,30.18,SSW,209,0.0,0.0,40,0.00,,,0.00,WUHU216WMR968SP,2013-10-14 01:51:00,
2013-10-13 18:56:00,48.6,25.8,30.18,SSW,209,0.0,0.0,41,0.00,,,0.00,WUHU216WMR968SP,2013-10-14 01:56:00,
2013-10-13 19:01:00,48.2,25.4,30.18,SSW,209,0.0,0.0,41,0.00,,,0.00,WUHU216WMR968SP,2013-10-14 02:01:00,
2013-10-13 19:06:00,47.8,25.6,30.18,SSW,209,0.0,0.0,42,0.00,,,0.00,WUHU216WMR968SP,2013-10-14 02:06:00,
2013-10-13 19:11:00,47.7,26.1,30.18,SSW,209,0.0,0.0,43,0.00,,,0.00,WUHU216WMR968SP,2013-10-14 02:11:00,
2013-10-13 19:16:00,47.3,25.8,30.18,SSW,209,0.0,0.0,43,0.00,,,0.00,WUHU216WMR968SP,2013-10-14 02:16:00,
2013-10-13 19:21:00,47.1,26.2,30.18,SSW,209,0.0,0.0,44,0.00,,,0.00,WUHU216WMR968SP,2013-10-14 02:21:00,
2013-10-13 19:26:00,46.8,25.9,30.18,SSW,209,0.0,0.0,44,0.00,,,0.00,WUHU216WMR968SP,2013-10-14 02:26:00,
2013-10-13 19:31:00,46.6,26.3,30.18,SSW,209,0.0,0.0,45,0.00,,,0.00,WUHU216WMR968SP,2013-10-14 02:31:00,
2013-10-13 19:36:00,46.4,26.1,30.18,SSW,209,0.0,0.0,45,0.00,,,0.00,WUHU216WMR968SP,2013-10-14 02:36:00,
2013-10-13 19:41:00,46.2,26.4,30.18,SSW,209,0.0,0.0,46,0.00,,,0.00,WUHU216WMR968SP,2013-10-14 02:41:00,
2013-10-13 19:46:00,45.9,26.7,30.18,SSW,208,0.0,0.0,47,0.00,,,0.00,WUHU216WMR968SP,2013-10-14 02:46:00,
2013-10-13 19:51:00,45.7,26.5,30.18,SSW,209,0.0,0.0,47,0.00,,,0.00,WUHU216WMR968SP,2013-10-14 02:51:00,
2013-10-13 19:56:00,45.5,26.9,30.18,SSW,209,0.0,0.0,48,0.00,,,0.00,WUHU216WMR968SP,2013-10-14 02:56:00,
2013-10-13 20:01:00,45.5,26.9,30.18,SSW,209,0.0,0.0,48,0.00,,,0.00,WUHU216WMR968SP,2013-10-14 03:01:00,
2013-10-13 20:06:00,45.1,26.5,30.18,SSW,209,0.0,0.0,48,0.00,,,0.00,WUHU216WMR968SP,2013-10-14 03:06:00,
2013-10-13 20:11:00,45.1,27.0,30.18,SSW,209,0.0,0.0,49,0.00,,,0.00,WUHU216WMR968SP,2013-10-14 03:11:00,
2013-10-13 20:16:00,44.8,26.7,30.18,SSW,209,0.0,0.0,49,0.00,,,0.00,WUHU216WMR968SP,2013-10-14 03:16:00,
2013-10-13 20:21:00,44.6,26.6,30.18,SSW,209,0.0,0.0,49,0.00,,,0.00,WUHU216WMR968SP,2013-10-14 03:21:00,
2013-10-13 20:26:00,44.4,26.9,30.18,SSW,209,0.0,0.0,50,0.00,,,0.00,WUHU216WMR968SP,2013-10-14 03:26:00,
2013-10-13 20:31:00,44.2,26.7,30.18,SSW,209,0.0,0.0,50,0.00,,,0.00,WUHU216WMR968SP,2013-10-14 03:31:00,
2013-10-13 20:36:00,44.1,27.1,30.18,SSW,209,0.0,0.0,51,0.00,,,0.00,WUHU216WMR968SP,2013-10-14 03:36:00,
2013-10-13 20:41:00,43.9,26.9,30.18,SSW,209,0.0,0.0,51,0.00,,,0.00,WUHU216WMR968SP,2013-10-14 03:41:00,
2013-10-13 20:46:00,43.7,26.7,30.18,SSW,209,0.0,0.0,51,0.00,,,0.00,WUHU216WMR968SP,2013-10-14 03:46:00,
2013-10-13 20:51:00,43.5,27.0,30.18,SSW,209,0.0,0.0,52,0.00,,,0.00,WUHU216WMR968SP,2013-10-14 03:51:00,
2013-10-13 20:56:00,43.3,26.8,30.18,SSW,209,0.0,0.0,52,0.00,,,0.00,WUHU216WMR968SP,2013-10-14 03:56:00,
2013-10-13 21:01:00,43.3,26.8,30.18,SSW,209,0.0,0.0,52,0.00,,,0.00,WUHU216WMR968SP,2013-10-14 04:01:00,
2013-10-13 21:02:00,43.2,26.7,30.18,SSW,209,0.0,0.0,52,0.00,,,0.00,WUHU216WMR968SP,2013-10-14 04:02:00,
2013-10-13 21:07:00,43.0,27.0,30.18,SSW,209,0.0,0.0,53,0.00,,,0.00,WUHU216WMR968SP,2013-10-14 04:07:00,
2013-10-13 21:12:00,43.0,27.0,30.18,SSW,209,0.0,0.0,53,0.00,,,0.00,WUHU216WMR968SP,2013-10-14 04:12:00,
2013-10-13 21:17:00,42.8,26.8,30.18,SSW,209,0.0,0.0,53,0.00,,,0.00,WUHU216WMR968SP,2013-10-14 04:17:00,
2013-10-13 21:22:00,42.6,27.1,30.18,SSW,209,0.0,0.0,54,0.00,,,0.00,WUHU216WMR968SP,2013-10-14 04:22:00,
2013-10-13 21:27:00,42.4,27.4,30.18,SSW,209,0.0,0.0,55,0.00,,,0.00,WUHU216WMR968SP,2013-10-14 04:27:00,
2013-10-13 21:32:00,42.3,27.3,30.18,SSW,209,0.0,0.0,55,0.00,,,0.00,WUHU216WMR968SP,2013-10-14 04:32:00,
2013-10-13 21:37:00,42.3,27.7,30.21,SSW,209,0.0,0.0,56,0.00,,,0.00,WUHU216WMR968SP,2013-10-14 04:37:00,
2013-10-13 21:42:00,42.1,27.6,30.21,SSW,209,0.0,0.0,56,0.00,,,0.00,WUHU216WMR968SP,2013-10-14 04:42:00,
2013-10-13 21:47:00,41.9,27.8,30.21,SSW,209,0.0,0.0,57,0.00,,,0.00,WUHU216WMR968SP,2013-10-14 04:47:00,
2013-10-13 21:52:00,41.9,27.8,30.21,SSW,209,0.0,0.0,57,0.00,,,0.00,WUHU216WMR968SP,2013-10-14 04:52:00,
2013-10-13 21:57:00,41.7,28.1,30.21,SSW,209,0.0,0.0,58,0.00,,,0.00,WUHU216WMR968SP,2013-10-14 04:57:00,
2013-10-13 22:02:00,41.5,27.9,30.21,SSW,209,0.0,0.0,58,0.00,,,0.00,WUHU216WMR968SP,2013-10-14 05:02:00,
2013-10-13 22:07:00,41.4,27.8,30.21,SSW,209,0.0,0.0,58,0.00,,,0.00,WUHU216WMR968SP,2013-10-14 05:07:00,
2013-10-13 22:12:00,41.4,28.2,30.21,SSW,209,0.0,0.0,59,0.00,,,0.00,WUHU216WMR968SP,2013-10-14 05:12:00,
2013-10-13 22:17:00,41.2,28.0,30.21,SSW,209,0.0,0.0,59,0.00,,,0.00,WUHU216WMR968SP,2013-10-14 05:17:00,
2013-10-13 22:22:00,41.2,28.4,30.21,SSW,209,0.0,0.0,60,0.00,,,0.00,WUHU216WMR968SP,2013-10-14 05:22:00,
2013-10-13 22:27:00,41.0,28.2,30.21,SSW,208,0.0,0.0,60,0.00,,,0.00,WUHU216WMR968SP,2013-10-14 05:27:00,
2013-10-13 22:32:00,41.0,28.2,30.21,SSW,208,0.0,0.0,60,0.00,,,0.00,WUHU216WMR968SP,2013-10-14 05:32:00,
2013-10-13 22:37:00,40.6,28.3,30.21,SSW,209,0.0,0.0,61,0.00,,,0.00,WUHU216WMR968SP,2013-10-14 05:37:00,
2013-10-13 22:42:00,40.5,28.6,30.21,SSW,209,0.0,0.0,62,0.00,,,0.00,WUHU216WMR968SP,2013-10-14 05:42:00,
2013-10-13 22:47:00,40.5,29.0,30.21,SSW,209,0.0,0.0,63,0.00,,,0.00,WUHU216WMR968SP,2013-10-14 05:47:00,
2013-10-13 22:52:00,40.3,28.8,30.21,SSW,209,0.0,0.0,63,0.00,,,0.00,WUHU216WMR968SP,2013-10-14 05:52:00,
2013-10-13 22:57:00,40.3,28.8,30.21,SSW,209,0.0,0.0,63,0.00,,,0.00,WUHU216WMR968SP,2013-10-14 05:57:00,
2013-10-13 23:02:00,40.1,29.0,30.21,SSW,209,0.0,0.0,64,0.00,,,0.00,WUHU216WMR968SP,2013-10-14 06:02:00,
2013-10-13 23:07:00,39.9,28.8,30.21,SSW,209,0.0,0.0,64,0.00,,,0.00,WUHU216WMR968SP,2013-10-14 06:07:00,
2013-10-13 23:12:00,39.9,29.2,30.21,SSW,209,0.0,0.0,65,0.00,,,0.00,WUHU216WMR968SP,2013-10-14 06:12:00,
2013-10-13 23:17:00,39.7,29.0,30.21,SSW,209,0.0,0.0,65,0.00,,,0.00,WUHU216WMR968SP,2013-10-14 06:17:00,
2013-10-13 23:22:00,39.7,29.4,30.21,SSW,209,0.0,0.0,66,0.00,,,0.00,WUHU216WMR968SP,2013-10-14 06:22:00,
2013-10-13 23:27:00,39.6,29.3,30.21,SSW,209,0.0,0.0,66,0.00,,,0.00,WUHU216WMR968SP,2013-10-14 06:27:00,
2013-10-13 23:32:00,39.6,29.6,30.21,SSW,209,0.0,0.0,67,0.00,,,0.00,WUHU216WMR968SP,2013-10-14 06:32:00,
2013-10-13 23:37:00,39.4,29.4,30.21,SSW,209,0.0,0.0,67,0.00,,,0.00,WUHU216WMR968SP,2013-10-14 06:37:00,
2013-10-13 23:42:00,39.4,29.4,30.21,SSW,209,0.0,0.0,67,0.00,,,0.00,WUHU216WMR968SP,2013-10-14 06:42:00,
2013-10-13 23:47:00,39.2,29.2,30.21,SSW,209,0.0,0.0,67,0.00,,,0.00,WUHU216WMR968SP,2013-10-14 06:47:00,
2013-10-13 23:52:00,39.2,29.2,30.21,SSW,209,0.0,0.0,67,0.00,,,0.00,WUHU216WMR968SP,2013-10-14 06:52:00,
2013-10-13 23:57:00,39.0,29.4,30.21,SSW,209,0.0,0.0,68,0.00,,,0.00,WUHU216WMR968SP,2013-10-14 06:57:00,